Flag for Canada Weather past 2 weeks in Mount Pearl, Newfoundland and Labrador, Canada

Now
63 °F

Mostly cloudy.


Feels Like: 63 °F
Forecast: 55 / 67 °F
Wind: 28 mph from West

Location: St. John's

Current Time: Sep 21, 2014 at 11:55:39 AM

Latest Report: Sep 21, 2014 at 11:30 AM


Visibility: 15 mi

Pressure: 30.13 "Hg

Humidity: 73%

Dew point: 54 °F

Location of Mount PearlLocation

Historic Weather in Mount Pearl — Graph

°F

Mount Pearl temperature yesterday

Maximum temperature yesterday: 57 °F (at 3:30 PM)
Minimum temperature yesterday: 43 °F (at 1:30 AM)
Average temperature yesterday: 49 °F

Past Weeks' High & Low Weather Summary

 TemperatureHumidityPressure
High77 °F (Sep 6, 1:30 PM)100% (Sep 7, 9:30 AM)30.49 "Hg (Sep 7, 9:30 AM)
Low39 °F (Sep 14, 3:30 AM)42% (Sep 8, 1:30 PM)29.69 "Hg (Sep 12, 4:30 PM)
Average56 °F83%30.05 "Hg
* Reported Sep 6 10:30 AM — Sep 21 10:30 AM, Mount Pearl, Weather by CustomWeather, © 2014

Note: Actual official high and low records may vary slightly from our data, if they occured in-between our weather recording intervals... More about our weather records

Advertising

Mount Pearl weather history for previous 24 hours

 ConditionsComfort  
Time TempWeatherWind HumidityBarometerVisibility
10:30 AM
Sep 21
63 °FMostly cloudy.29 mph73%30.13 "Hg15 mi
9:30 AM61 °FMostly cloudy.29 mph77%30.11 "Hg15 mi
8:30 AM59 °FOvercast.28 mph82%30.10 "Hg15 mi
7:30 AM57 °FSprinkles. Low clouds.26 mph88%30.10 "Hg12 mi
6:30 AM57 °FMostly cloudy.24 mph82%30.10 "Hg15 mi
5:30 AM57 °FMostly cloudy.22 mph82%30.10 "Hg15 mi
4:30 AM57 °FMostly cloudy.28 mph82%30.11 "Hg15 mi
3:30 AM55 °FMostly cloudy.26 mph82%30.11 "Hg15 mi
2:30 AM55 °FMostly cloudy.22 mph77%30.12 "Hg15 mi
1:30 AM54 °FMostly cloudy.28 mph82%30.13 "Hg15 mi
12:30 AM54 °FMostly cloudy.23 mph77%30.15 "Hg15 mi
11:30 PM
Sep 20
54 °FMostly cloudy.25 mph77%30.15 "Hg15 mi
10:30 PM52 °FMostly cloudy.26 mph77%30.17 "Hg15 mi
9:30 PM52 °FOvercast.20 mph77%30.18 "Hg15 mi
8:30 PM54 °FMostly cloudy.31 mph72%30.19 "Hg15 mi
7:30 PM52 °FMore clouds than sun.26 mph77%30.18 "Hg15 mi
6:30 PM54 °FPartly sunny.28 mph67%30.18 "Hg15 mi
5:30 PM54 °FPartly sunny.22 mph67%30.18 "Hg15 mi
4:30 PM55 °FBroken clouds.26 mph59%30.18 "Hg15 mi
3:30 PM57 °FPartly sunny.26 mph55%30.17 "Hg15 mi
2:30 PM55 °FPartly sunny.26 mph59%30.19 "Hg15 mi
Weather by CustomWeather, © 2014

See weather overviewHow to use our weather pages